Location: Newark
(51.3318°N, 0.0053°E)
Time: 02:32:02
(UTC+00:00)

M-CUBED/EXP-1 PRIME - Visible Passes

Search period start: 28 June 2022 00:00
Search period end: 08 July 2022 00:00
Orbit: 423 x 634 km, 101.7° (Epoch: 27 June)

Date Brightness Start Highest point End Pass type
(mag) Time Alt. Az. Time Alt. Az. Time Alt. Az.
28 Jun ? 00:44:15 26° SSE 00:45:58 79° ENE 00:49:18 10° NNW visible
29 Jun ? 00:33:01 21° SE 00:34:58 54° ENE 00:38:15 10° NNW visible
29 Jun ? 02:08:16 11° WSW 02:09:15 12° W 02:10:39 10° WNW visible
30 Jun ? 00:21:46 16° SE 00:23:58 38° ENE 00:27:08 10° N visible
30 Jun ? 01:57:01 15° WSW 01:58:05 17° W 02:00:21 10° NW visible
01 Jul ? 00:10:30 12° ESE 00:13:00 28° ENE 00:15:58 10° N visible
01 Jul ? 01:45:45 19° SW 01:46:56 23° W 01:49:41 10° NW visible
01 Jul ? 23:59:27 10° ESE 00:02:02 22° ENE 00:04:44 10° N visible
02 Jul ? 01:34:28 23° SSW 01:35:47 32° WSW 01:38:53 10° NW visible
02 Jul ? 23:48:53 10° E 23:51:05 17° NE 23:53:23 10° NNE visible
03 Jul ? 01:23:11 26° SSW 01:24:39 47° WSW 01:27:59 10° NNW visible
03 Jul ? 23:38:28 10° E 23:40:09 13° NE 23:41:52 10° NNE visible
04 Jul ? 01:11:52 27° S 01:13:32 69° WSW 01:16:59 10° NNW visible
04 Jul ? 23:28:32 10° ENE 23:29:13 10° NE 23:29:55 10° NE visible
05 Jul ? 01:00:33 24° SSE 01:02:26 82° ENE 01:05:56 10° NNW visible
06 Jul ? 00:49:13 20° SE 00:51:21 57° ENE 00:54:49 10° NNW visible
06 Jul ? 02:24:28 11° WSW 02:25:40 13° W 02:27:14 10° WNW visible
07 Jul ? 00:37:52 16° SE 00:40:16 41° ENE 00:43:38 10° N visible
07 Jul ? 02:13:07 15° SW 02:14:24 17° W 02:16:48 10° NW visible
